Weather History for KAZO - May, 2013

Change the Weather History Date:

Tuesday, May 14, 2013

  Actual Average Record
Temperature  
Mean Temperature 64 °F 58 °F  
Max Temperature 80 °F 69 °F - ()
Min Temperature 47 °F 47 °F - ()
Degree Days  
Heating Degree Days 1 8  
Month to date heating degree days 81 129  
Since 1 July heating degree days 6213 6272  
Cooling Degree Days 0 1  
Month to date cooling degree days 17 8  
Year to date cooling degree days 19 12  
Growing Degree Days 14 (Base 50)    
Moisture  
Dew Point 43 °F    
Average Humidity 51    
Maximum Humidity 63    
Minimum Humidity 39    
Precipitation  
Precipitation T in 0.13 in - ()
Month to date precipitation 0.83 1.75  
Year to date precipitation 12.42 10.32  
Sea Level Pressure  
Sea Level Pressure 29.86 in    
Wind  
Wind Speed 9 mph (SSW)    
Max Wind Speed 23 mph    
Max Gust Speed 29 mph    
Visibility 10 miles    
Events      
T = Trace of Precipitation, MM = Missing Value Source: NWS Daily Summary

Daily Weather History Graph

Daily Weather History Graph

Search for Another Location

Airport or City:

Trip Planner

Search our weather history database for the weather conditions in past years. The results will help you decide how hot, cold, wet, or windy it might be!

Date:

Astronomy

May. 14, 2013 Rise Set
Actual Time 6:21 AM EDT 8:55 PM EDT
Civil Twilight 5:49 AM EDT 9:27 PM EDT
Nautical Twilight 5:09 AM EDT 10:08 PM EDT
Astronomical Twilight 4:24 AM EDT 10:53 PM EDT
Moon 10:01 AM EDT (5/14) 12:03 AM EDT (5/14)
Length of Visible Light 15h 38m
Length of Day
14h 33m
Waxing Crescent, 19% of the Moon is Illuminated
May 14
Waxing Crescent
May 18
First Quarter
May 25
Full
May 31
Last Quarter
Jun 8
New

Hourly Weather History & Observations

Time (EDT) Temp. Heat Index Dew Point Humidity Pressure Visibility Wind Dir Wind Speed Gust Speed Precip Events Conditions
12:53 AM 48.0 °F - 28.0 °F 46% 30.08 in 10.0 mi South 3.5 mph - N/A   Mostly Cloudy
1:53 AM 48.0 °F - 26.1 °F 42% 30.07 in 10.0 mi South 4.6 mph - N/A   Overcast
2:53 AM 48.9 °F - 27.0 °F 43% 30.03 in 10.0 mi SSE 4.6 mph - 0.00 in   Overcast
3:53 AM 50.0 °F - 27.0 °F 41% 30.04 in 10.0 mi SSE 3.5 mph - N/A   Overcast
4:53 AM 50.0 °F - 28.9 °F 44% 30.01 in 10.0 mi SE 5.8 mph - 0.00 in   Overcast
5:53 AM 50.0 °F - 30.0 °F 46% 29.98 in 10.0 mi SSE 5.8 mph - N/A   Overcast
6:53 AM 50.0 °F - 32.0 °F 50% 29.96 in 10.0 mi SSE 5.8 mph - N/A   Partly Cloudy
7:53 AM 52.0 °F - 35.1 °F 53% 29.93 in 10.0 mi South 10.4 mph - N/A   Clear
8:53 AM 57.0 °F - 37.0 °F 47% 29.90 in 10.0 mi South 15.0 mph 24.2 mph N/A   Clear
9:53 AM 60.1 °F - 39.9 °F 47% 29.88 in 10.0 mi South 16.1 mph 24.2 mph N/A   Scattered Clouds
10:53 AM 66.0 °F - 44.1 °F 45% 29.83 in 10.0 mi South 19.6 mph 28.8 mph N/A   Clear
11:53 AM 70.0 °F - 46.0 °F 42% 29.81 in 10.0 mi South 17.3 mph 26.5 mph N/A   Clear
12:53 PM 73.0 °F - 48.9 °F 42% 29.82 in 10.0 mi WSW 13.8 mph 19.6 mph N/A   Partly Cloudy
1:53 PM 73.9 °F - 50.0 °F 43% 29.80 in 10.0 mi SSW 6.9 mph 20.7 mph N/A   Clear
2:53 PM 77.0 °F - 51.1 °F 40% 29.77 in 10.0 mi WSW 11.5 mph - N/A   Clear
3:53 PM 79.0 °F - 54.0 °F 42% 29.76 in 10.0 mi WSW 9.2 mph - N/A   Clear
4:53 PM 80.1 °F 80.0 °F 54.0 °F 40% 29.77 in 10.0 mi WNW 10.4 mph - N/A   Clear
5:53 PM 78.1 °F - 52.0 °F 40% 29.79 in 10.0 mi NW 13.8 mph 18.4 mph N/A   Clear
6:53 PM 75.0 °F - 52.0 °F 44% 29.75 in 10.0 mi SW 5.8 mph - N/A   Partly Cloudy
7:53 PM 72.0 °F - 55.9 °F 57% 29.73 in 10.0 mi WSW 3.5 mph - N/A   Scattered Clouds
8:53 PM 70.0 °F - 53.1 °F 55% 29.75 in 10.0 mi Calm Calm - N/A   Clear
9:53 PM 66.9 °F - 53.1 °F 61% 29.72 in 10.0 mi Calm Calm - 0.00 in   Partly Cloudy
10:53 PM 66.9 °F - 52.0 °F 59% 29.70 in 10.0 mi SSE 4.6 mph - N/A   Partly Cloudy
11:53 PM 68.0 °F - 52.0 °F 56% 29.70 in 10.0 mi SSW 9.2 mph - N/A   Clear